📊 Raw Sensor Data
Showing records 38876 to 38900 of 84,936 total
| ID | Distance (ft) | Battery V | Battery A | Int Temp (°F) | Int Humid (%) | Ext Temp (°F) | Solar V | RSSI | SNR | Time Stamp |
|---|---|---|---|---|---|---|---|---|---|---|
| 46073 | 15.5 | 4.00 | 5 | 73 | 44 | 75 | 5.10 | -72 | 7 | 07/12/2025 08:30 AM |
| 46072 | 15.4 | 4.00 | 5 | 72 | 44 | 76 | 5.10 | -73 | 8 | 07/12/2025 08:15 AM |
| 46071 | 15.4 | 4.05 | 0 | 71 | 43 | 74 | 5.10 | -72 | 8 | 07/12/2025 08:00 AM |
| 46070 | 15.4 | 4.07 | 57 | 70 | 43 | 74 | 4.50 | -74 | 7 | 07/12/2025 07:45 AM |
| 46069 | 15.4 | 4.02 | 18 | 69 | 43 | 72 | 4.50 | -74 | 7 | 07/12/2025 07:30 AM |
| 46068 | 15.4 | 3.98 | 14 | 67 | 43 | 72 | 4.50 | -73 | 8 | 07/12/2025 07:15 AM |
| 46067 | 15.3 | 4.01 | 10 | 66 | 43 | 70 | 4.50 | -76 | 8 | 07/12/2025 07:00 AM |
| 46066 | 15.3 | 4.00 | 5 | 65 | 43 | 68 | 4.50 | -72 | 7 | 07/12/2025 06:45 AM |
| 46065 | 15.2 | 3.99 | 0 | 63 | 43 | 66 | 4.50 | -72 | 8 | 07/12/2025 06:30 AM |
| 46064 | 15.2 | 3.98 | -6 | 62 | 43 | 64 | 4.50 | -72 | 8 | 07/12/2025 06:15 AM |
| 46063 | 15.2 | 3.96 | -34 | 61 | 44 | 62 | 4.20 | -72 | 8 | 07/12/2025 06:00 AM |
| 46062 | 15.2 | 3.98 | -5 | 61 | 44 | 62 | 1.30 | -72 | 8 | 07/12/2025 05:45 AM |
| 46061 | 15.2 | 3.98 | -5 | 61 | 44 | 62 | 0.40 | -71 | 7 | 07/12/2025 05:30 AM |
| 46060 | 15.2 | 3.98 | -5 | 62 | 44 | 62 | 0.00 | -72 | 8 | 07/12/2025 05:15 AM |
| 46059 | 15.2 | 3.98 | -5 | 62 | 44 | 63 | 0.00 | -72 | 7 | 07/12/2025 05:00 AM |
| 46058 | 15.2 | 3.98 | -5 | 63 | 44 | 63 | 0.10 | -70 | 8 | 07/12/2025 04:45 AM |
| 46057 | 15.2 | 3.98 | -5 | 63 | 44 | 64 | 0.10 | -73 | 7 | 07/12/2025 04:30 AM |
| 46056 | 15.2 | 3.98 | -5 | 63 | 43 | 64 | 0.00 | -71 | 8 | 07/12/2025 04:15 AM |
| 46055 | 15.2 | 3.99 | -5 | 63 | 43 | 65 | 0.00 | -74 | 7 | 07/12/2025 04:00 AM |
| 46054 | 15.2 | 3.99 | -5 | 62 | 44 | 64 | 0.10 | -72 | 8 | 07/12/2025 03:45 AM |
| 46053 | 15.2 | 3.93 | -5 | 62 | 44 | 64 | 0.00 | -73 | 7 | 07/12/2025 03:00 AM |
| 46052 | 15.2 | 3.93 | -5 | 62 | 44 | 63 | 0.10 | -70 | 7 | 07/12/2025 02:45 AM |
| 46051 | 15.2 | 3.93 | -5 | 63 | 45 | 63 | 0.00 | -71 | 8 | 07/12/2025 02:30 AM |
| 46050 | 15.2 | 3.93 | -5 | 63 | 45 | 64 | 0.00 | -71 | 7 | 07/12/2025 02:15 AM |
| 46049 | 15.2 | 3.93 | -5 | 64 | 44 | 65 | 0.00 | -71 | 8 | 07/12/2025 02:00 AM |